www.pogodaiklimat.ru

АРХИВ ПОГОДЫ в Чикаго

Время (UTC), дата Ветер
(напр.,м/с)
 
Видим.   Явления Облачность Т
(С)
Тd
(С)
f
(%)
Тe
(С)
Тes
(С)
Комфортность

P
(гПа)

Po
(гПа)
Тmin
(С)
Tmax
(С)
R
(мм)
SD
(см)
11:51 14.06 ЮЗ  16 км    2/0 4500 м
[средняя верхняя] 
+16.7  +6.7  52  +16  +17    1016.6  992.6         
12:51 14.06 ЮЗ  6
{9} 
16 км    5/0 3000 м
[средняя верхняя] 
+18.9  +7.2  47  +19  +20    1016.6  992.6         
13:51 14.06 ЮЗ  7
{11} 
16 км    5/0 3000 м
[средняя верхняя] 
+20.6  +7.8  44  +21  +23  комфорт  1015.8  991.9         
14:51 14.06 ЮЗ  7
{11} 
16 км    8/0 3000 м
[средняя верхняя] 
+22.2  +8.3  41  +23  +24  комфорт  1015.4  991.2         
15:51 14.06 ЮЗ  9
{17} 
16 км    8/0 2250 м
[средняя верхняя] 
+23.9  +8.9  38  +25  +25  комфорт  1014.7  990.6         
16:51 14.06 ЮЗ  9
{13} 
16 км    8/0 2250 м
[средняя верхняя] 
+24.4  +8.9  37  +25  +25  комфорт  1013.5  989.6  +14.4  +25.0     
17:51 14.06 ЮЗ  11
{16} 
16 км    8/5 1950 м
[средняя верхняя] 
+25.6  +8.9  35  +26  +26  жарко  1012.7  988.6         
18:51 14.06 ЮЗ  9
{16} 
16 км    8/2 1950 м
[средняя верхняя] 
+25.6  +8.9  35  +26  +26  жарко  1011.7  987.6         
19:51 14.06 ЮЗ  8
{13} 
16 км    8/2 1950 м
[средняя верхняя] 
+25.0  +8.3  35  +25  +26  комфорт  1010.8  986.9         
20:51 14.06 ЮЗ  9
{14} 
16 км    8/2 1950 м
[средняя верхняя] 
+26.1  +7.8  31  +26  +26  жарко  1010.0  986.0         
21:51 14.06 ЮЗ  7
{15} 
16 км    8/2 1800 м
[средняя верхняя] 
+25.6  +5.6  28  +25  +26  комфорт  1009.5  985.6         
22:51 14.06 ЮЗ  10
{18} 
16 км    10/2 1800 м
[средняя верхняя] 
+24.4  +5.6  30  +24  +24  комфорт  1009.4  985.6  +24.4  +26.7     
23:51 14.06 ЮЗ  7
{13} 
16 км    10/2 1800 м
[средняя верхняя] 
+22.8  +7.2  37  +24  +24  комфорт  1009.5  985.6         
00:51 15.06 ЮЗ  9
{13} 
16 км    10/2 1800 м
[средняя верхняя] 
+21.7  +8.9  44  +23  +23  комфорт  1010.2  986.3         
01:51 15.06 ЮЗ  11
{18} 
10 км  дождь  10/2 1500 м
[средняя] 
+16.7  +13.3  80  +15  +15    1012.0  987.9      0.3   
02:00 15.06 ЮЗ  8
{16} 
5 км  дождь, дымка  10/5 1500 м
[средняя] 
+16.1  +13.9  87  +14  +14      988.3         
02:23 15.06 ЮЗ  8 км  слабый дождь, дымка  10/10 1800 м  +16.1  +13.9  87  +15  +15      988.3         
02:51 15.06 Ю  13 км  слабый дождь  10/10 1800 м  +15.6  +13.9  90  +14  +14    1011.5  987.6         
03:51 15.06 Ю  16 км    10/10 1800 м  +16.1  +13.3  83  +15  +15    1010.7  986.9         
04:51 15.06 Ю  16 км    10/10 1410 м  +16.7  +12.8  78  +16  +16    1009.7  986.0  +15.6  +24.4  1.3   
05:51 15.06 Ю  16 км    10/10 1320 м  +17.8  +12.2  70  +17  +17    1009.4  985.6         
06:51 15.06 Ю  4
{10} 
16 км  слабая морось  10/10 1050 м  +17.8  +12.8  73  +17  +17    1008.7  985.0         
07:51 15.06 ЮЗ  6
{10} 
16 км    8/8 1470 м
[средняя] 
+17.8  +12.8  73  +17  +17    1008.4  984.6         
08:51 15.06 ЮЗ  6
{10} 
16 км    8/5 1350 м
[средняя] 
+17.8  +13.3  75  +17  +17    1008.1  984.3         
09:51 15.06 Ю  16 км    8/8 1380 м
[верхняя] 
+18.3  +13.3  73  +18  +18    1007.7  984.0         
10:51 15.06 Ю  6
{10} 
16 км    10/8 1500 м
[средняя] 
+18.9  +13.9  73  +19  +19    1008.5  984.6  +16.7  +18.9     
11:51 15.06 Ю  16 км    10/8 1440 м
[средняя] 
+19.4  +14.4  73  +20  +20    1008.3  984.6         
12:51 15.06 ЮЗ  4
{8} 
16 км    10/10 1230 м  +19.4  +14.4  73  +21  +21  комфорт  1008.5  984.6         
13:51 15.06 Ю  16 км    10/10 1230 м  +20.6  +15.0  70  +23  +23  комфорт  1008.2  984.3         
14:51 15.06 Ю  16 км    10/10 1170 м  +21.1  +15.0  68  +24  +24  комфорт  1008.1  984.3         
15:31 15.06 Ю  16 км    10/10 750 м  +20.6  +15.6  73  +23  +23  комфорт    984.6         
15:47 15.06 Ю  6
{8} 
16 км  слабый дождь  10/10 720 м  +20.0  +16.0  78  +22  +22  комфорт    984.6         
15:51 15.06 Ю  14 км  слабый дождь  10/10 720 м  +19.4  +16.1  81  +21  +21  комфорт  1008.5  984.6         
16:51 15.06 ЮЗ  16 км    10/10 510 м  +19.4  +16.1  81  +21  +21  комфорт  1008.4  984.6  +18.9  +21.1     
17:30 15.06 ЮЗ  16 км    10/10 390 м  +19.4  +16.1  81  +21  +21  комфорт    984.3         
17:51 15.06 Ю  11 км  слабый дождь  10/10 390 м  +19.4  +16.7  84  +22  +22  комфорт  1008.0  984.0         
18:51 15.06 Ю  16 км  слабый дождь  10/10 390 м  +19.4  +17.2  87  +22  +22  комфорт  1007.9  984.0         
19:51 15.06 Ю  13 км  слабый дождь  10/10 240 м  +19.4  +17.8  90  +22  +22  комфорт  1007.8  984.0         
20:22 15.06 Ю  13 км  слабый дождь  10/10 390 м  +20.0  +17.8  87  +23  +23  комфорт    984.0         
20:51 15.06 Ю  13 км    10/10 210 м  +20.0  +18.3  90  +23  +23  комфорт  1007.7  984.0         
21:51 15.06 ЮВ  11 км    10/10 210 м  +19.4  +18.3  93  +22  +22  комфорт  1007.2  983.3         
22:33 15.06 ЮВ  13 км  слабый дождь  10/10 180 м  +19.4  +18.3  93  +22  +22  комфорт    983.6         
22:51 15.06 ЮВ  14 км    10/10 180 м  +20.0  +18.3  90  +24  +24  комфорт  1007.3  983.6  +19.4  +20.0  0.3   
23:15 15.06 СВ  8 км  дымка  10/10 150 м  +17.8  +16.7  93  +17  +17      983.6         
23:25 15.06 СВ  6 км  слабый дождь, дымка  10/10 150 м  +16.1  +15.0  93  +15  +15      983.6         
23:51 15.06 С  5 км  слабая морось, дымка  10/10 150 м  +15.0  +14.4  96  +13  +13    1007.9  984.0         
00:51 16.06 С  5 км  слабая морось, дымка  10/10 150 м  +13.9  +12.8  93  +12  +12    1008.8  984.6         
00:58 16.06 С  5 км  слабая морось, дымка  10/10 150 м  +13.9  +12.8  93  +12  +12      984.6         

 

Местоположение метеостанции Chicago-O`Hare International Airport: широта 41.9797 долгота -87.9044 высота над уровнем моря 203 м.

В архиве по умолчанию представлена погода в Чикаго за последние 1-2 суток. Обновление информации о фактической погоде в базе происходит ежечасно! Архивные данные за месяц целиком и за предыдущие месяцы Вы можете получить, выбрав интересующий диапазон дат из раскрывающегося списка и нажав кнопку "Ввод!".

Внимание! Архив погоды МЕТАР в базе сайта в настоящее время начинается c 1 января 2011 г. Нет смысла пытаться выбрать более раннюю дату.

Внимание! Время в таблицах - всемирное. Для получения местного времени необходимо прибавить поправку, которая в Чикаго равна -6 ч.

Ветер - указаны скорость ветра в м/с и направление, откуда дует ветер: С - северный, СВ - северо-восточный, В - восточный, ЮВ - юго-восточный, Ю - южный, ЮЗ - юго-западный, З - западный, СЗ - северо-западный.
Видимость - горизонтальная дальность видимости в метрах или километрах. При видимости от 1 до 10 км при отсутствии осадков обычно наблюдается дымка, при ухудшении видимости до 1 км и менее - туман. В сухую погоду видимость может ухудшаться дымом, пылью или мглою.
Атмосферные явления - указаны явления, наблюдавшиеся в указанный момент времени.
Облачность - указаны через наклонную черту верхняя и нижняя облачность в баллах и высота нижней границы облаков в метрах. Внимание: облачность, как и прочие метеорологические величины в США измеряются автоматическими метеостанциями. Указанные значения в баллах носят условный характер и показывают процент времени, в течение которого, в среднем, лазерный луч высотомера отражался от облаков обратно.
T - Температура воздуха - температура, измеренная на высоте 2 м над землей.
Td - Температура точки росы - температура, при понижении до которой содержащийся в воздухе водяной пар достигнет насыщения.
f - Относительная влажность воздуха - влажноcть воздуха, измеренная на высоте 2 м над землей.
Te - Эффективная температура - температура, которую ощущает одетый по сезону человек в тени. Характеристика душности погоды. При расчете учитывается влияние влажности воздуха и скорости ветра на теплоощущения человека.
Tes - Эффективная температура на солнце - температура, которую ощущает человек, с поправкой на солнечный нагрев. Характеристика знойности погоды. Зависит от высоты солнца над горизонтом, облачности и скорости ветра. Ночью, в пасмурную погоду, а также при ветре 12 м/с и более поправка равна нулю.
P - Атмосферное давление - приведенное к уровню моря атмосферное давление.
Po - Атмосферное давление - измеренное на уровне метеостанции атмосферное давление.
Tmin - Минимальная температура - минимум температуры воздуха на высоте 2 м над землей.
Tmax - Максимальная температура - максимум температуры воздуха на высоте 2 м над землей.
R - Количество осадков - Количество выпавших осадков за 3 или 6 часов, мм.
SD - Снежный покров - Высота снежного покрова, см.